Regional Weather Roundup
Issued by NWS

Home | Current Version | Previous Version | Graphics & Text | Print | Product List | Glossary Off
Versions: 1 2 3 4 5 6 7 8 9 10 11 12 13 14 15 16 17 18 19 20 21 22 23 24 25 26 27 28 29 30 31 32 33 34 35 36 37 38 39 40 41 42 43 44 45 46 47 48 49 50

000
ASUS43 KMKX 250211
RWRWI

WISCONSIN REGIONAL WEATHER ROUNDUP
NATIONAL WEATHER SERVICE MILWAUKEE/SULLIVAN WI
900 PM CDT SAT JUN 24 2017

NOTE: "FAIR" INDICATES FEW OR NO CLOUDS BELOW 12,000 FEET WITH NO
SIGNIFICANT WEATHER AND/OR OBSTRUCTIONS TO VISIBILITY.

WIZ001-002-006>008-014>016-023>028-250300-
NORTHWEST WISCONSIN

CITY           SKY/WX    TMP DP  RH WIND       PRES   REMARKS
SUPERIOR ARPT  NOT AVBL
ASHLAND        CLOUDY    57  47  69 W8        29.95S
HAYWARD        CLOUDY    56  49  77 VRB3      29.99R
SIREN          MOCLDY    57  45  64 CALM      30.02R
CUMBERLAND     PTCLDY    55  45  67 W6        30.01R
RICE LAKE      CLOUDY    59  45  58 W8        30.02R
CHETEK         CLOUDY    58  48  71 W3        30.01R
LADYSMITH      CLOUDY    58  45  63 W7        30.01R
EAU CLAIRE     CLEAR     57  47  69 W6        30.00S
MENOMONIE      MOCLDY    59  47  65 W7        30.02R
NEW RICHMOND   PTCLDY    55  44  68 W5        30.03S
OSCEOLA        PTCLDY    58  47  68 W6        30.05R
$$

WIZ003>005-009-010-017-018-250300-
NORTH CENTRAL WISCONSIN

CITY           SKY/WX    TMP DP  RH WIND       PRES   REMARKS
MANITOWISH WTR CLOUDY    53  53 100 CALM      29.95S
ARBOR VITAE    CLOUDY    55  49  81 NW6       29.95R
WOODRUFF       CLOUDY    55  49  81 NW6       29.95R
RHINELANDER    MOCLDY    50  49  96 W6        29.96S
EAGLE RIVER    LGT RAIN  52  51  97 CALM      29.94S
LAND O LAKES   CLOUDY    53  51  94 CALM      29.95S
PHILLIPS       CLOUDY    54  50  87 CALM      29.97R
TOMAHAWK       NOT AVBL
MEDFORD        LGT RAIN  53  47  81 W7        29.99R
MERRILL        DRIZZLE   53  50  92 W6        29.98S
$$

WIZ029-030-035-036-043>047-250300-
CENTRAL WISCONSIN

CITY           SKY/WX    TMP DP  RH WIND       PRES   REMARKS
WAUSAU         CLOUDY    58  44  60 NW18G28   29.96R
MOSINEE        NOT AVBL
MARSHFIELD     MOCLDY    53  45  74 W7        29.98S
STEVENS POINT  CLOUDY    55  43  64 W6        29.98S
WAUPACA        HVY RAIN  55  51  85 SW16      29.98R
WAUTOMA        CLOUDY    55  46  71 W9        29.99S
WISC RAPIDS    CLOUDY    56  46  69 W5        30.00R
CAMP DOUGLAS   NOT AVBL
$$

WIZ011>013-019>022-031-037>040-048>050-250300-
NORTHEAST WISCONSIN

CITY           SKY/WX    TMP DP  RH WIND       PRES   REMARKS
ANTIGO         MOCLDY    54  46  73 NW10      29.96S
SHAWANO        MOCLDY    62  46  55 W5        29.94R
OCONTO         CLOUDY    52  49  92 CALM      29.94R
STURGEON BAY     N/A     58  55  90 N7          N/A
GREEN BAY      MOCLDY    62  47  57 W5        29.94R
MANITOWOC      PTCLDY    62  44  51 SW3       29.95S
APPLETON       MOCLDY    61  43  51 W10       29.94S
CLINTONVILLE   PTCLDY    61  43  51 NW7       29.94R
OSHKOSH        LGT RAIN  57  46  66 W12G25    29.97R
$$

WIZ032>034-041-042-053>061-250300-
SOUTHWEST WISCONSIN

CITY           SKY/WX    TMP DP  RH WIND       PRES   REMARKS
LA CROSSE      CLEAR     59  50  72 SW5       30.04R
SPARTA         PTCLDY    50  49  97 CALM      30.05R
VIROQUA        CLEAR     52  49  90 CALM      30.05S
BOSCOBEL       CLEAR     56  52  86 CALM      30.06R
PRAIRIE DU CHI CLEAR     56  53  89 CALM      30.06S
PLATTEVILLE    CLEAR     56  55  93 CALM      30.07R
$$

WIZ056-057-062-063-064-067-068-250300-
SOUTH CENTRAL WISCONSIN

CITY           SKY/WX    TMP DP  RH WIND       PRES   REMARKS
REEDSBURG      CLEAR     51  49  92 SW5       30.03S
BARABOO/DELLS  CLEAR     51  48  90 SW5       30.02S
LONE ROCK      PTCLDY    56  51  84 W6        30.05R
MINERAL POINT  CLEAR     54  54 100 W3        30.06S
MADISON        CLOUDY    55  51  86 SW3       30.02F
MIDDLETON      CLOUDY    54  53  95 W5        30.04S
WATERTOWN      MOCLDY    56  51  82 SW6       30.02S
MONROE         MOCLDY    54  52  94 CALM      30.05S
JANESVILLE     PTCLDY    57  55  94 N9        30.05S
$$

WIZ051-052-058>065-066-070>072-250300-
SOUTHEAST WISCONSIN

CITY           SKY/WX    TMP DP  RH WIND       PRES   REMARKS
MILWAUKEE      CLOUDY    61  47  59 SW9       30.00S
WAUKESHA       CLOUDY    54  48  82 W7        30.02S
MILWAUKEE/TIMM MOCLDY    61  41  48 SW14G23   30.00S
RACINE         LGT RAIN  59  48  67 NW8       30.03R
KENOSHA        MOCLDY    59  48  67 NW10      30.03R
FOND DU LAC    MOCLDY    59  43  55 W13G25    29.99R
SHEBOYGAN      MOCLDY    59  48  67 W5        29.97R
WEST BEND      CLOUDY    61  41  48 W20G29    30.00R
JUNEAU         CLOUDY    54  47  76 SW9       30.01F
$$

LSZ147-162-250300-
LAKE SUPERIOR

STATION/POSITION TIME  TEMP    WIND        PRES    WAVE
                       AIR SEA DIR/SP/G            HT/PER
                 (UTC) (F)     (DEG/KT/KT) (MB)    (FT/S)
W MID LAKE BUOY  0150   45 39  290/  4/  6 1013.7F   1/ 4
DEVILS ISLAND    0200   54     300/ 14/ 15 1014.2R
SAXON HARBOR     0130   58     190/  1/  2 1013.2F
$$

LMZ867-665-643>646-250300-
LAKE MICHIGAN

STATION/POSITION TIME  TEMP    WIND        PRES    WAVE
                       AIR SEA DIR/SP/G            HT/PER
                 (UTC) (F)     (DEG/KT/KT) (MB)    (FT/S)
CHAMBERS ISLAND  0140   58     300/  6/ 10 1012.9S
S GREEN BAY BUOY 0200   59     360/ 16/ 27 1013.9
N MID LAKE BUOY  0150   58 57  280/  4/  6 1013.5R   1/ 3
NORTHPORT PIER   0140   59     330/  7/ 10 1012.9F
KEWAUNEE LAKESHO 0148   57      60/  4/  8 1013.2S
SHEBOYGAN LAKESH 0200   65     240/  8/  9 1014.5R
PORT WASHINGTON  0140   67     250/  5/  9 1015.6F
ATWATER BUOY     0139   63 57  230/ 10/ 16 1015.6R
MILWAUKEE LAKESH 0150   63     240/ 11/ 13   N/A
S MID LAKE BUOY  0150   64 62  310/ 10/ 12 1015.9R   1/ 4
KENOSHA   LAKESH 0200   61     300/ 11/ 16 1016.6
$$

TC  - TEMPERATURE IN CELSIUS
VSB - VISIBILITY IN STATUTE MILES
WCI - WIND CHILL INDEX
HX  - HEAT INDEX





USA.gov is the U.S. government's official web portal to all federal, state and local government web resources and services.